Regional Weather Roundup
Issued by NWS

Home | Current Version | Previous Version | Text Only | Print | Product List | Glossary Off
Versions: 1 2 3 4 5 6 7 8 9 10 11 12 13 14 15 16 17 18 19 20 21 22 23 24 25 26 27 28 29 30 31 32 33 34 35 36 37 38 39 40 41 42 43 44 45 46 47 48 49 50

000
ASUS43 KMKX 240800
RWRWI

WISCONSIN REGIONAL WEATHER ROUNDUP
NATIONAL WEATHER SERVICE MILWAUKEE/SULLIVAN WI
300 AM CDT MON APR 24 2017

NOTE: "FAIR" INDICATES FEW OR NO CLOUDS BELOW 12,000 FEET WITH NO
SIGNIFICANT WEATHER AND/OR OBSTRUCTIONS TO VISIBILITY.

WIZ001-002-006>008-014>016-023>028-240900-
NORTHWEST WISCONSIN

CITY           SKY/WX    TMP DP  RH WIND       PRES   REMARKS
SUPERIOR ARPT  CLOUDY    35  29  78 NE22      30.01F WCI  24
ASHLAND        PTCLDY    33  26  75 NE10      30.03F WCI  25
HAYWARD        CLOUDY    36  29  75 NE5       29.94F WCI  32
SIREN          CLOUDY    38  32  78 E6        29.91F WCI  33
CUMBERLAND     CLOUDY    43  37  81 SE9       29.91S
RICE LAKE      CLOUDY    44  38  79 SE15G22   29.93F
CHETEK         CLOUDY    42  38  84 SE10G18   29.93F
LADYSMITH      CLOUDY    40  34  77 SE9       29.97F WCI  35
EAU CLAIRE     NOT AVBL
MENOMONIE      CLOUDY    47  41  78 E13       29.92S
NEW RICHMOND   PTCLDY    46  39  78 SE8       29.87F
OSCEOLA        CLOUDY    45  39  79 E7        29.90F
$$

WIZ003>005-009-010-017-018-240900-
NORTH CENTRAL WISCONSIN

CITY           SKY/WX    TMP DP  RH WIND       PRES   REMARKS
MANITOWISH WTR CLOUDY    32  25  76 E6        30.00F WCI  26
ARBOR VITAE    PTCLDY    35  25  67 SE8       30.00S WCI  29
WOODRUFF       PTCLDY    35  25  67 SE8       30.00S WCI  29
RHINELANDER    PTCLDY    35  23  61 SE8       30.00F WCI  29
EAGLE RIVER    CLOUDY    31  13  48 SE9       30.02S WCI  23
LAND O LAKES   CLOUDY    31  15  51 E7        30.04F WCI  24
PHILLIPS       PTCLDY    35  28  76 SE10      29.97S WCI  27
TOMAHAWK       PTCLDY    33  25  72 SE5       30.01F WCI  29
MEDFORD        PTCLDY    34  29  82 SE7       30.00S WCI  28
MERRILL        CLOUDY    34  25  69 SE7       30.03F WCI  28
$$

WIZ029-030-035-036-043>047-240900-
CENTRAL WISCONSIN

CITY           SKY/WX    TMP DP  RH WIND       PRES   REMARKS
WAUSAU         PTCLDY    34  26  72 SE12      30.01F WCI  25
MOSINEE        MOCLDY    34  30  86 E10       30.04S WCI  26
MARSHFIELD     CLOUDY    36  30  79 E12       29.99F WCI  28
STEVENS POINT  CLOUDY    33  28  79 E7        30.04F WCI  27
WAUPACA        CLEAR     38  28  67 NE7       30.06S WCI  33
WAUTOMA        PTCLDY    36  29  75 NE5       30.05S WCI  32
WISC RAPIDS    CLOUDY    36  29  75 E7        30.03F WCI  30
CAMP DOUGLAS   PTCLDY    38  35  86 E9        30.01S WCI  32
$$

WIZ011>013-019>022-031-037>040-048>050-240900-
NORTHEAST WISCONSIN

CITY           SKY/WX    TMP DP  RH WIND       PRES   REMARKS
ANTIGO         CLOUDY    31  22  70 E9G16     30.03F WCI  23
SHAWANO        CLEAR     37  29  74 E8        30.08F WCI  30
OCONTO         PTCLDY    35  28  78 NE5       30.08F WCI  31
STURGEON BAY   CLEAR     35  29  78 E10       30.07F WCI  27
GREEN BAY      CLEAR     37  30  75 E9        30.06F WCI  30
MANITOWOC      NOT AVBL
APPLETON       CLEAR     36  27  69 E12G17    30.03F WCI  27
CLINTONVILLE   PTCLDY    34  28  80 E8        30.06F WCI  27
OSHKOSH        PTCLDY    39  31  72 E7        30.04F WCI  34
$$

WIZ032>034-041-042-053>061-240900-
SOUTHWEST WISCONSIN

CITY           SKY/WX    TMP DP  RH WIND       PRES   REMARKS
LA CROSSE      CLEAR     51  42  71 E12       29.93F
SPARTA         CLEAR     43  39  87 E7        29.99S
VIROQUA        CLEAR     45  40  84 E9        29.96F
BOSCOBEL       CLEAR     45  40  82 NE3       29.97F
PRAIRIE DU CHI CLEAR     47  36  65 E3        29.95F
PLATTEVILLE    CLEAR     51  35  52 CALM      29.98S
$$

WIZ056-057-062-063-064-067-068-240900-
SOUTH CENTRAL WISCONSIN

CITY           SKY/WX    TMP DP  RH WIND       PRES   REMARKS
REEDSBURG      CLEAR     39  38  94 E6        30.00F WCI  35
BARABOO/DELLS  CLEAR     38  34  85 E7        30.00F WCI  33
LONE ROCK      NOT AVBL
MINERAL POINT  CLEAR     52  34  50 E3        29.97F
MADISON        CLEAR     37  33  85 E5        30.01F WCI  33
MIDDLETON      CLEAR     41  38  89 E3        30.01F
WATERTOWN      CLEAR     36  36 100 CALM      30.02F
MONROE         CLEAR     45  37  76 E6        29.99F
JANESVILLE     CLEAR     37  36  93 E3        30.00F
$$

WIZ051-052-058>065-066-070>072-240900-
SOUTHEAST WISCONSIN

CITY           SKY/WX    TMP DP  RH WIND       PRES   REMARKS
MILWAUKEE      PTCLDY    40  35  83 N8        30.03F WCI  34
WAUKESHA       CLEAR     34  32  93 E3        30.04S
MILWAUKEE/TIMM CLEAR     36  32  87 N5        30.05S WCI  32
RACINE         CLEAR     39  35  86 N9        30.04F WCI  33
KENOSHA        CLEAR     35  33  92 NE5       30.02F WCI  31
FOND DU LAC    PTCLDY    37  29  72 NE8       30.04F WCI  31
SHEBOYGAN      CLEAR     36  30  79 NE10      30.04F WCI  28
WEST BEND      CLEAR     36  32  87 NE5       30.04F WCI  32
JUNEAU         PTCLDY    37  33  86 NE6       30.03F WCI  32
$$

LSZ147-162-240900-
LAKE SUPERIOR

STATION/POSITION TIME  TEMP    WIND        PRES    WAVE
                       AIR SEA DIR/SP/G            HT/PER
                 (UTC) (F)     (DEG/KT/KT) (MB)    (FT/S)
DEVILS ISLAND    0700   35      70/ 25/ 27 1019.2F
SAXON HARBOR     0730   36      80/  7/ 10 1016.9S
$$

LMZ867-665-643>646-240900-
LAKE MICHIGAN

STATION/POSITION TIME  TEMP    WIND        PRES    WAVE
                       AIR SEA DIR/SP/G            HT/PER
                 (UTC) (F)     (DEG/KT/KT) (MB)    (FT/S)
CHAMBERS ISLAND  0740   35      50/ 10/ 14 1018.6F
N MID LAKE BUOY  0650   35 37   70/ 16/ 17 1021.0F   3/ 4
NORTHPORT PIER   0740   35      80/ 14/ 17 1019.0F
KEWAUNEE LAKESHO 0730   38      50/ 12/ 16 1018.0F
SHEBOYGAN LAKESH 0700   39      10/ 17/ 19 1018.3F
PORT WASHINGTON  0740   39     350/  5/  7 1017.9F
MILWAUKEE LAKESH 0730   41      10/ 11/ 13   N/A
S MID LAKE BUOY  0650   40 40   30/  6/  6 1017.7F   3/ 6
KENOSHA   LAKESH 0700   41     360/  6/ 10 1017.3
$$

TC  - TEMPERATURE IN CELSIUS
VSB - VISIBILITY IN STATUTE MILES
WCI - WIND CHILL INDEX
HX  - HEAT INDEX




USA.gov is the U.S. government's official web portal to all federal, state and local government web resources and services.